Tracking 22454 objects as of 5-Mar-2021
HD Live streaming from Space Station
objects crossing your sky now

COSMOS 2491 DEB

Track COSMOS 2491 DEB now!
10-day predictions


NORAD ID: 45128
Int'l Code: 2013-076Z
Perigee: 811.3 km
Apogee: 854.2 km
Inclination: 81.2 °
Period: 101.4 minutes
Semi major axis: 7203 km
RCS: Unknown
Launch date: December 25, 2013
Source: Commonwealth of Independent States (former USSR) (CIS)
Launch site: PLESETSK MISSILE AND SPACE COMPLEX (PKMTR)

Note: This is SATELLITE DEBRIS
aabbcc
Your satellite tracking list
Your tracking list is empty




NASA's NSSDC Master Catalog

Two Line Element Set (TLE):
1 45128U 13076AA  21061.90700387  .00001460  00000-0  67868-3 0  9990
2 45128  81.2170 145.3484 0029733 115.5491 244.8765 14.19927449 56726
Source of the keplerian elements: AFSPC